Location: Brookview Estates
(36.0476°N, 86.6931°W)
Time: 10:34:17
(UTC+00:00)

N. Korean satellite - Visible Passes

Search period start: 04 March 2021 00:00
Search period end: 14 March 2021 00:00
Orbit: 451 x 502 km, 97.2° (Epoch: 03 March)

Date Brightness Start Highest point End Pass type
(mag) Time Alt. Az. Time Alt. Az. Time Alt. Az.
04 Mar 6.4 11:17:55 10° N 11:21:28 70° WNW 11:25:03 10° SSW visible
05 Mar 7.7 10:51:17 10° NNE 10:54:43 46° E 10:58:12 10° S visible
06 Mar 9.3 10:25:11 10° NE 10:27:53 20° E 10:30:36 10° SE visible
07 Mar 6.9 11:31:00 10° N 11:34:25 44° WNW 11:37:52 10° SSW visible
08 Mar 6.8 11:04:06 10° NNE 11:07:42 74° ESE 11:11:19 10° S visible
09 Mar 8.6 10:37:40 10° NE 10:40:53 30° E 10:44:06 10° SSE visible
10 Mar 9.8 10:12:06 10° ENE 10:13:57 14° E 10:15:50 10° SE visible
11 Mar 6.5 11:16:58 10° N 11:20:35 71° WNW 11:24:12 10° SSW visible
12 Mar 7.8 10:50:17 10° NNE 10:53:47 45° E 10:57:18 10° S visible
13 Mar 9.4 10:24:09 10° NE 10:26:53 20° E 10:29:38 10° SE visible
